[[{"header":{"parameterUnit":"m.s-1","parameterCategory":1,"la1":30.2991,"la2":30.254,"lo1":-89.0895,"lo2":-89.0444,"dy":0.0017,"dx":0.0017,"nx":28,"ny":28,"refTime":"2023-09-03T21:00:00:Z","depth":0,"parameterNumber":2,"parameterNumberName":"U-component_of_WINDS"},"data":[0,0,0,0,0,0,0,0,0,0,0,0,0,0,0,0,0,0,0,0,0,0,0,0,0,0,0,0,0,0,0,0,0,0,0,0,0,0,0,0,0,0,0,0,0,0,0,0,0,0,0,0,0,0,0,0,0,0,-5.1591,-5.1592,0,-5.1735,-5.1736,-5.1738,-5.169,-5.1687,-5.1684,-5.1681,-5.183,-5.1837,-5.1844,0,0,0,0,0,0,0,0,0,0,0,0,0,-5.1276,-5.1282,-5.159,-5.1592,-5.1594,-5.1734,-5.1736,-5.1738,-5.1691,-5.1687,-5.1683,-5.1679,-5.1828,-5.1836,-5.1844,0,0,0,0,0,0,0,0,0,0,0,0,0,-5.1416,-5.1284,-5.159,-5.1587,-5.1588,-5.1734,-5.1736,-5.1739,-5.1691,-5.1687,-5.1682,-5.1678,-5.1825,-5.1835,-5.1846,-5.2003,0,0,-5.1877,-5.1882,0,0,0,0,0,0,0,0,-5.1408,-5.1427,-5.1586,-5.1588,-5.1589,-5.1689,-5.168,-5.1828,-5.1693,-5.1652,-5.1681,-5.1675,-5.1787,-5.1801,-5.1838,-5.201,-5.2017,-5.1878,-5.1884,-5.1889,-5.1892,0,0,0,0,0,0,0,-5.1398,-5.1421,-5.1647,-5.1588,-5.159,-5.1579,-5.1594,-5.1708,-5.1745,-5.1656,-5.1652,-5.167,-5.1787,-5.1828,-5.1841,-5.2019,-5.1878,-5.1887,-5.1893,-5.1897,-5.2326,-5.2331,0,0,0,0,0,0,-5.1388,-5.1413,-5.1643,-5.1652,-5.1485,-5.1589,-5.1605,-5.1662,-5.1743,-5.1751,-5.1674,-5.1667,-5.1813,-5.1829,-5.1846,-5.2034,-5.1889,-5.1898,-5.1904,-5.2321,-5.2328,-5.2333,0,0,0,0,0,0,-5.1381,-5.1408,-5.1637,-5.1532,-5.156,-5.1599,-5.1664,-5.1667,-5.1708,-5.1757,-5.1763,-5.1708,-5.181,-5.1832,-5.1964,-5.2038,-5.1903,-5.1912,-5.2315,-5.2323,-5.233,-5.2412,0,0,0,0,0,0,-5.1372,-5.1406,-5.1466,-5.1533,-5.1566,-5.1752,-5.1668,-5.1674,-5.1726,-5.1718,-5.1791,-5.1799,-5.1808,-5.1949,-5.1974,-5.205,-5.192,-5.2309,-5.2319,-5.2328,-5.2403,-5.2422,-5.2438,0,0,0,0,0,-5.1361,-5.1484,-5.1469,-5.1497,-5.1641,-5.1757,-5.1775,-5.1782,-5.1732,-5.1792,-5.1824,-5.1796,-5.2027,-5.1963,-5.1991,-5.2071,-5.2304,-5.2316,-5.2327,-5.2395,-5.2418,-5.2438,0,0,0,0,0,0,-5.1425,-5.1493,-5.1477,-5.1626,-5.1686,-5.1748,-5.1824,-5.1807,-5.1883,-5.1873,-5.1879,-5.1896,-5.2032,-5.2066,-5.1993,-5.2228,-5.2158,-5.2176,-5.22,-5.2222,-5.2239,-5.2227,-5.1929,0,0,0,0,0,-5.1456,-5.1544,-5.1599,-5.1724,-5.1755,-5.1785,-5.1836,-5.1836,-5.1899,-5.1924,-5.1965,-5.2028,-5.2114,-5.2171,-5.2253,-5.2409,-5.2423,-5.2478,-5.2496,-5.251,-5.2524,-5.2608,-5.2632,-5.2372,-5.2372,-5.2371,0,0,-5.1522,-5.157,-5.1625,-5.1738,-5.1785,-5.1875,-5.1807,-5.1906,-5.1972,-5.1939,-5.2065,-5.2099,-5.2169,-5.2313,-5.2379,-5.2345,-5.26,-5.2525,-5.2536,-5.2542,-5.2622,-5.2647,-5.2668,-5.238,-5.2378,-5.2377,0,0,-5.1686,-5.1733,-5.1841,-5.1889,-5.196,-5.1979,-5.2006,-5.2072,-5.2092,-5.2219,-5.2195,-5.2276,-5.2426,-5.2476,-5.2521,-5.2706,-5.2683,-5.2733,-5.2823,-5.2905,-5.2925,-5.2943,-5.3007,-5.303,-5.2748,-5.2749,-5.2749,0,-5.1759,-5.1893,-5.1899,-5.2,-5.205,-5.2025,-5.2134,-5.2181,-5.2276,-5.2312,-5.2273,-5.2459,-5.2505,-5.2659,-5.2704,-5.2743,-5.2772,-5.2723,-5.2922,-5.294,-5.2957,-5.3017,-5.3042,-5.2754,-5.2753,-5.2753,-5.2752,0,-5.1977,-5.2071,-5.2151,-5.2241,-5.2301,-5.2406,-5.2429,-5.2489,-5.2485,-5.2509,-5.2638,-5.2693,-5.2785,-5.2823,-5.282,-5.2977,-5.2954,-5.2919,-5.2848,-5.2987,-5.3044,-5.3067,-5.2762,-5.276,-5.2758,-5.2757,0,0,-5.2183,-5.2277,-5.2306,-5.2346,-5.2423,-5.2496,-5.2601,-5.269,-5.274,-5.2808,-5.2894,-5.3022,-5.2989,-5.3041,-5.3044,-5.3116,-5.3256,-5.3072,-5.3074,-5.3102,-5.3431,-5.3454,-5.348,-5.3243,-5.3248,-5.3252,-5.3424,0,-5.2352,-5.2533,-5.2542,-5.2707,-5.2793,-5.2771,-5.2861,-5.2919,-5.2944,-5.3022,-5.305,-5.3139,-5.3091,-5.3122,-5.3192,-5.3224,-5.3322,-5.3213,-5.3322,-5.3326,-5.3302,-5.3511,-5.3536,-5.3695,-5.3446,-5.345,-5.3453,0,-5.2571,-5.2644,-5.2817,-5.2881,-5.2918,-5.2999,-5.3081,-5.3156,-5.3221,-5.3234,-5.3292,-5.3286,-5.3392,-5.3321,-5.3468,-5.3393,-5.344,-5.3463,-5.3469,-5.3477,-5.3395,-5.3521,-5.3747,-5.3769,-5.3488,-5.3486,-5.3483,0,-5.27,-5.2842,-5.2963,-5.2999,-5.3078,-5.3135,-5.3171,-5.3231,-5.3284,-5.3357,-5.3391,-5.3477,-5.3523,-5.3589,-5.3606,-5.3553,-5.3752,-5.3682,-5.3765,-5.3764,-5.3804,-5.3801,-5.4037,-5.3841,-5.384,-5.384,-5.3839,0,-5.2885,-5.2991,-5.3022,-5.3096,-5.3214,-5.3225,-5.3342,-5.3374,-5.3428,-5.3508,-5.3497,-5.3572,-5.3591,-5.3671,-5.3686,-5.3804,-5.3826,-5.3839,-5.3841,-5.3838,-5.3836,-5.3865,-5.3853,-5.3846,-5.3845,-5.3843,-5.3842,0,-5.3047,-5.3072,-5.3202,-5.3267,-5.3285,-5.3369,-5.3424,-5.3496,-5.3521,-5.3622,-5.3647,-5.3686,-5.3779,-5.3803,-5.3915,-5.3925,-5.4063,-5.4056,-5.404,-5.4039,-5.4119,-5.4109,-5.4379,-5.4414,-5.4198,-5.42,-5.4202,0,-5.3162,-5.3242,-5.3315,-5.3367,-5.3405,-5.3491,-5.3544,-5.3559,-5.3616,-5.3696,-5.3758,-5.385,-5.3923,-5.4073,-5.4111,-5.4197,-5.419,-5.4279,-5.4203,-5.4197,-5.4188,-5.4181,-5.4188,-5.4292,-5.4294,-5.4296,-5.4298,0,-5.3361,-5.337,-5.3447,-5.3529,-5.3594,-5.3659,-5.3722,-5.3766,-5.379,-5.3855,-5.3949,-5.4006,-5.412,-5.4211,-5.4297,-5.4335,-5.432,-5.4322,-5.4345,-5.4341,-5.4327,-5.4333,-5.4076,-5.4315,-5.4313,-5.4312,-5.4311,-5.431,-5.3501,-5.3571,-5.3632,-5.3719,-5.3768,-5.3827,-5.3897,-5.393,-5.4009,-5.4101,-5.4107,-5.4209,-5.4273,-5.4387,-5.4429,-5.451,-5.4483,-5.4517,-5.4525,-5.4532,-5.4538,-5.4317,-5.4526,-5.4526,-5.4525,-5.4525,-5.4525,0,-5.3696,-5.3735,-5.3815,-5.3903,-5.3971,-5.3953,-5.4022,-5.408,-5.417,-5.423,-5.4303,-5.4411,-5.4499,-5.4545,-5.4633,-5.4688,-5.4684,-5.471,-5.4705,-5.4713,-5.4558,-5.4528,-5.4712,-5.4712,-5.4712,-5.4712,-5.4712,-5.4712,-5.3806,-5.3923,-5.3939,-5.408,-5.4118,-5.4217,-5.4258,-5.4313,-5.4361,-5.4482,-5.4554,-5.4584,-5.4639,-5.473,-5.481,-5.4821,-5.4853,-5.4882,-5.489,-5.4744,-5.4724,-5.4706,-5.4677,-5.489,-5.489,-5.5038,-5.5039,-5.504]},{"header":{"parameterUnit":"m.s-1","parameterCategory":1,"la1":30.2991,"la2":30.254,"lo1":-89.0895,"lo2":-89.0444,"dy":0.0017,"dx":0.0017,"nx":28,"ny":28,"refTime":"2023-09-03T21:00:00:Z","depth":0,"parameterNumber":3,"parameterNumberName":"V-component_of_WINDS"},"data":[0,0,0,0,0,0,0,0,0,0,0,0,0,0,0,0,0,0,0,0,0,0,0,0,0,0,0,0,0,0,0,0,0,0,0,0,0,0,0,0,0,0,0,0,0,0,0,0,0,0,0,0,0,0,0,0,0,0,1.587,1.5869,0,1.5751,1.575,1.5748,1.5727,1.5728,1.5729,1.573,1.5601,1.5596,1.5592,0,0,0,0,0,0,0,0,0,0,0,0,0,1.6071,1.6068,1.587,1.5868,1.5867,1.5751,1.575,1.5748,1.5727,1.5728,1.573,1.5731,1.5602,1.5597,1.5592,0,0,0,0,0,0,0,0,0,0,0,0,0,1.5971,1.6067,1.587,1.5843,1.5839,1.5752,1.575,1.5748,1.5727,1.5728,1.573,1.5731,1.5604,1.5597,1.5591,1.552,0,0,1.5571,1.5568,0,0,0,0,0,0,0,0,1.5977,1.5964,1.5848,1.5845,1.584,1.5756,1.5773,1.5671,1.5726,1.5769,1.573,1.5732,1.5651,1.564,1.5614,1.5514,1.5508,1.557,1.5566,1.5563,1.5562,0,0,0,0,0,0,0,1.5984,1.5969,1.5823,1.5847,1.5842,1.5834,1.5821,1.5754,1.5702,1.5766,1.5764,1.575,1.5649,1.5621,1.5611,1.5506,1.557,1.5565,1.5561,1.5558,1.534,1.5339,0,0,0,0,0,0,1.5997,1.5975,1.5826,1.5819,1.5914,1.5829,1.5815,1.5781,1.5703,1.5693,1.5749,1.575,1.5631,1.5619,1.5606,1.5517,1.5563,1.5557,1.5554,1.5342,1.534,1.5338,0,0,0,0,0,0,1.6001,1.5984,1.5831,1.5896,1.5876,1.5824,1.5786,1.5778,1.575,1.5691,1.5681,1.5731,1.5632,1.5616,1.5542,1.5512,1.5554,1.5548,1.5344,1.5342,1.5339,1.5339,0,0,0,0,0,0,1.6007,1.5986,1.596,1.5896,1.5873,1.5771,1.5784,1.5775,1.574,1.574,1.5671,1.5661,1.5632,1.5552,1.5535,1.5504,1.5543,1.5347,1.5343,1.534,1.5341,1.5336,1.5332,0,0,0,0,0,1.6014,1.5963,1.5959,1.5941,1.584,1.5769,1.5756,1.5726,1.5738,1.571,1.5672,1.5663,1.5519,1.5545,1.5526,1.5492,1.5348,1.5344,1.534,1.5343,1.5337,1.5332,0,0,0,0,0,0,1.6021,1.5954,1.5948,1.5875,1.5829,1.5766,1.573,1.572,1.5667,1.5669,1.5631,1.5616,1.5544,1.5511,1.554,1.5419,1.5434,1.5426,1.5443,1.5437,1.5433,1.5441,1.5538,0,0,0,0,0,1.6015,1.5966,1.5908,1.5849,1.5826,1.5782,1.575,1.5732,1.568,1.566,1.5616,1.5565,1.5508,1.5471,1.5415,1.5337,1.532,1.5304,1.53,1.5297,1.5289,1.5244,1.5236,1.5325,1.5325,1.5325,0,0,1.6,1.5957,1.5927,1.5849,1.5811,1.5758,1.5766,1.5709,1.5669,1.565,1.5578,1.5545,1.5485,1.5408,1.5372,1.5378,1.5262,1.5292,1.5289,1.5284,1.5239,1.5231,1.5224,1.5322,1.5322,1.5323,0,0,1.5945,1.5909,1.5855,1.5817,1.576,1.5731,1.5719,1.5658,1.5635,1.5563,1.5548,1.5498,1.5401,1.5359,1.5325,1.5256,1.5245,1.5238,1.5214,1.5171,1.5164,1.5157,1.5131,1.5122,1.5232,1.5232,1.5232,0,1.5933,1.5856,1.5828,1.5773,1.5738,1.5722,1.5666,1.5629,1.5556,1.5531,1.554,1.5418,1.5376,1.5289,1.5273,1.5246,1.5228,1.5245,1.5168,1.5161,1.5154,1.5129,1.5119,1.5231,1.5231,1.5231,1.5231,0,1.5843,1.5789,1.5752,1.5684,1.5645,1.559,1.5552,1.5516,1.5501,1.547,1.5396,1.5346,1.528,1.5258,1.5242,1.5168,1.5174,1.5176,1.519,1.5146,1.5121,1.5111,1.5231,1.5231,1.5231,1.5231,0,0,1.5787,1.5707,1.5693,1.5662,1.5598,1.5555,1.5498,1.5436,1.5405,1.5354,1.5304,1.5223,1.5225,1.5186,1.5165,1.5127,1.5073,1.5133,1.5131,1.5122,1.4987,1.4985,1.4974,1.5067,1.5065,1.5063,1.4992,0,1.5724,1.5625,1.5599,1.5514,1.5463,1.5447,1.5397,1.5351,1.5321,1.5272,1.5238,1.5181,1.5188,1.5164,1.5126,1.5088,1.5045,1.5093,1.5017,1.5014,1.5031,1.4962,1.4959,1.4894,1.4982,1.498,1.4979,0,1.5636,1.5587,1.5498,1.5441,1.5418,1.5374,1.5315,1.5269,1.5216,1.5196,1.5154,1.5137,1.5074,1.5094,1.5007,1.504,1.5007,1.4984,1.498,1.497,1.4993,1.4948,1.4872,1.4862,1.4964,1.4965,1.4966,0,1.5603,1.5515,1.5449,1.5423,1.5355,1.5325,1.5294,1.5243,1.5207,1.5155,1.5131,1.5071,1.5037,1.499,1.4956,1.4974,1.4871,1.4888,1.4851,1.4852,1.4828,1.4829,1.4745,1.4811,1.4811,1.4811,1.4811,0,1.5534,1.5479,1.5434,1.5393,1.5331,1.5301,1.5239,1.5208,1.5163,1.5114,1.5096,1.505,1.501,1.4957,1.493,1.4861,1.4846,1.4827,1.482,1.4828,1.483,1.4804,1.4807,1.4808,1.4809,1.4809,1.481,0,1.5486,1.5453,1.5381,1.5323,1.5307,1.5264,1.5213,1.5172,1.5143,1.5081,1.5065,1.5018,1.4956,1.4918,1.4839,1.482,1.4743,1.4739,1.4762,1.4758,1.4723,1.4726,1.4616,1.46,1.4679,1.4678,1.4678,0,1.5443,1.5401,1.5339,1.5307,1.5277,1.5225,1.5189,1.5158,1.512,1.5057,1.5023,1.4961,1.4909,1.481,1.4767,1.4706,1.4699,1.4665,1.4689,1.4698,1.4696,1.4698,1.4692,1.466,1.4659,1.4658,1.4658,0,1.537,1.5356,1.5306,1.5251,1.5209,1.5163,1.5117,1.5091,1.5051,1.501,1.4948,1.4908,1.4828,1.4765,1.4701,1.4667,1.4654,1.4651,1.4639,1.4645,1.4659,1.4649,1.4749,1.4653,1.4654,1.4654,1.4654,1.4654,1.5321,1.5283,1.5234,1.5179,1.5142,1.5099,1.5058,1.5024,1.4973,1.4907,1.4891,1.4826,1.4772,1.4685,1.465,1.4596,1.4601,1.4584,1.4579,1.4575,1.4573,1.467,1.4584,1.4584,1.4585,1.4585,1.4585,0,1.5246,1.5214,1.5164,1.5102,1.5058,1.5054,1.5003,1.4965,1.4909,1.4862,1.4812,1.4739,1.4679,1.4632,1.4569,1.4535,1.4527,1.4519,1.452,1.4512,1.4573,1.4589,1.4526,1.4526,1.4526,1.4526,1.4526,1.4526,1.5201,1.5136,1.5117,1.5032,1.4999,1.4937,1.4908,1.4868,1.483,1.4751,1.4702,1.4673,1.4625,1.4558,1.4502,1.4489,1.4466,1.4458,1.4444,1.4502,1.4508,1.4514,1.4529,1.4454,1.4454,1.4387,1.4386,1.4386]}]]